Tracking 30970 objects as of 3-Jul-2025
HD Live streaming from Space Station
objects crossing your sky now

BREEZE-M R/B

Track BREEZE-M R/B now!


NORAD ID: 42750
Int'l Code: 2017-032B
Perigee: 1,830.8 km
Apogee: 34,431.0 km
Inclination: 30.9 °
Period: 636.1 minutes
Semi major axis: 24501 km
RCS: Unknown
Launch date: June 8, 2017
Source: Commonwealth of Independent States (former USSR) (CIS)
Launch site: TYURATAM MISSILE AND SPACE COMPLEX (TTMTR)

Note: This is a ROCKET BODY
Your satellite tracking list
Your tracking list is empty




NASA's NSSDC Master Catalog

Two Line Element Set (TLE):
1 42750U 17032B   25182.60121575 -.00000116  00000-0  00000-0 0  9995
2 42750  30.9183 294.8902 6652577  85.5921 341.9418  2.26361847 66737
Source of the keplerian elements: AFSPC